CW6451 Weather Reports


Display with metric or nautical units.
time (UTC)temp
F
wind
direction
speed
MPH
gust
MPH
rain 1hr
in
rain 24hr
in
rain mn
in
humidity
%
barometer
mb
20170923105329 62 308 12.0 21.0 0.00 0.05 0.00 96 1013.7
20170923104818 62 355 13.0 24.0 0.00 0.05 0.00 96 1013.6
20170923104336 62 312 11.0 21.0 0.00 0.05 0.00 97 1013.5
20170923103835 62 342 12.0 23.0 0.00 0.05 0.00 97 1013.5
20170923103323 62 319 14.0 24.0 0.00 0.05 0.00 97 1013.7
20170923102820 62 335 13.0 24.0 0.00 0.05 0.00 97 1013.8
20170923102338 62 290 11.0 20.0 0.00 0.05 0.00 97 1013.8
20170923101820 62 326 13.0 22.0 0.00 0.05 0.00 97 1013.8
20170923101330 62 305 12.0 22.0 0.00 0.05 0.00 96 1013.7
20170923100830 62 344 12.0 20.0 0.00 0.05 0.00 96 1013.8
20170923100320 62 315 12.0 20.0 0.00 0.05 0.00 96 1013.5
20170923095820 62 296 11.0 19.0 0.00 0.05 0.00 96 1013.5
20170923095333 62 342 12.0 25.0 0.00 0.05 0.00 96 1013.4
20170923094822 62 320 12.0 25.0 0.00 0.05 0.00 96 1013.3
20170923094326 62 346 12.0 19.0 0.00 0.05 0.00 96 1013.4
20170923093839 62 355 10.0 24.0 0.00 0.05 0.00 97 1013.2
20170923093334 62 331 13.0 24.0 0.00 0.05 0.00 97 1013.1
20170923092824 62 343 15.0 26.0 0.00 0.05 0.00 96 1012.9
20170923092334 62 327 14.0 26.0 0.00 0.05 0.00 97 1013.1
20170923091824 62 350 15.0 23.0 0.00 0.05 0.00 97 1013.1
20170923091320 62 323 11.0 24.0 0.00 0.05 0.00 97 1013.1
20170923090831 62 321 12.0 22.0 0.00 0.05 0.00 97 1012.9
20170923090324 62 339 13.0 27.0 0.00 0.06 0.00 97 1012.8
20170923085837 62 338 17.0 24.0 0.00 0.06 0.00 97 1012.9
20170923085325 62 344 13.0 24.0 0.00 0.06 0.00 97 1012.9
20170923084824 62 329 13.0 23.0 0.00 0.06 0.00 97 1013.0
20170923084319 62 348 12.0 23.0 0.00 0.06 0.00 97 1012.9
20170923083824 62 300 14.0 24.0 0.00 0.06 0.00 97 1013.0
20170923083320 62 313 16.0 24.0 0.00 0.06 0.00 97 1012.9
20170923082829 62 316 16.0 23.0 0.00 0.06 0.00 97 1012.9
20170923082319 62 325 14.0 23.0 0.00 0.06 0.00 97 1012.8
20170923081837 62 340 14.0 26.0 0.00 0.06 0.00 97 1012.8
20170923081327 62 349 13.0 28.0 0.00 0.06 0.00 97 1012.7
20170923080825 62 300 16.0 28.0 0.00 0.06 0.00 97 1012.8
20170923080332 62 347 12.0 24.0 0.00 0.06 0.00 97 1012.8
20170923075830 62 309 14.0 24.0 0.00 0.06 0.00 97 1012.9
20170923075319 62 343 11.0 18.0 0.00 0.06 0.00 97 1012.9
20170923074839 62 5 10.0 23.0 0.00 0.06 0.00 97 1012.9
20170923074335 62 350 13.0 23.0 0.00 0.06 0.00 97 1012.9
20170923073826 62 323 11.0 24.0 0.00 0.06 0.00 97 1012.9
20170923073322 62 348 14.0 24.0 0.00 0.06 0.00 97 1012.9
20170923072831 62 355 13.0 22.0 0.00 0.06 0.00 97 1012.8
20170923072328 62 9 14.0 26.0 0.00 0.06 0.00 97 1012.6
20170923071827 62 334 15.0 27.0 0.00 0.06 0.00 97 1012.5
20170923071323 62 303 17.0 26.0 0.00 0.06 0.00 97 1012.5
20170923070835 62 286 17.0 25.0 0.00 0.06 0.00 97 1012.6
20170923070330 62 346 12.0 21.0 0.00 0.06 0.00 96 1012.5
20170923065832 62 322 12.0 21.0 0.00 0.06 0.00 96 1012.6
20170923065333 62 325 11.0 27.0 0.00 0.06 0.00 96 1012.6
20170923064821 62 313 15.0 23.0 0.00 0.06 0.00 96 1012.4
20170923064319 62 327 10.0 22.0 0.00 0.06 0.00 96 1012.4
20170923063829 62 342 14.0 22.0 0.00 0.06 0.00 96 1012.5
20170923063337 62 329 11.0 21.0 0.00 0.06 0.00 96 1012.5
20170923062835 62 311 12.0 19.0 0.00 0.06 0.00 96 1012.5
20170923062337 62 310 11.0 21.0 0.00 0.06 0.00 96 1012.4
20170923061827 62 342 13.0 26.0 0.00 0.06 0.00 96 1012.6
20170923061323 62 351 12.0 26.0 0.00 0.06 0.00 96 1012.7
20170923060836 62 328 16.0 23.0 0.00 0.06 0.00 96 1012.6
20170923060323 62 343 12.0 21.0 0.00 0.06 0.00 96 1012.8
20170923055839 62 330 13.0 25.0 0.00 0.06 0.00 96 1012.8
20170923055330 62 360 12.0 25.0 0.00 0.06 0.00 96 1012.7
20170923054818 62 355 11.0 23.0 0.00 0.06 0.00 96 1012.8
20170923054336 62 355 12.0 24.0 0.00 0.06 0.00 96 1012.8
20170923053821 62 315 13.0 24.0 0.00 0.06 0.00 96 1012.9
20170923053329 62 338 14.0 24.0 0.00 0.06 0.00 96 1012.9
20170923052827 62 331 14.0 24.0 0.00 0.06 0.00 96 1012.9
20170923052323 62 348 12.0 25.0 0.00 0.06 0.00 96 1012.9
20170923051832 62 344 14.0 25.0 0.00 0.06 0.00 96 1012.8
20170923051322 62 308 15.0 26.0 0.00 0.06 0.00 96 1012.8
20170923050823 62 346 17.0 26.0 0.00 0.06 0.00 96 1012.9
20170923050332 62 324 15.0 22.0 0.00 0.06 0.06 96 1012.7
20170923045824 62 336 12.0 24.0 0.00 0.06 0.06 96 1012.7
20170923045333 62 342 16.0 23.0 0.00 0.06 0.06 96 1012.6
20170923044822 62 347 14.0 23.0 0.00 0.06 0.06 96 1012.7
20170923044319 62 341 15.0 21.0 0.00 0.06 0.06 96 1012.7
20170923043838 62 317 14.0 24.0 0.00 0.06 0.06 97 1012.7
20170923043320 62 322 15.0 24.0 0.00 0.06 0.06 97 1012.8
20170923042837 62 355 16.0 23.0 0.00 0.06 0.06 97 1012.7
20170923042325 62 348 12.0 25.0 0.00 0.06 0.06 97 1012.5
20170923041829 62 11 14.0 25.0 0.00 0.06 0.06 97 1012.4
20170923041325 62 309 12.0 22.0 0.00 0.06 0.06 97 1012.5
20170923040836 62 336 10.0 23.0 0.00 0.06 0.06 97 1012.5
20170923040332 62 348 13.0 23.0 0.00 0.06 0.06 97 1012.7
20170923035834 62 346 14.0 23.0 0.00 0.06 0.06 97 1012.7
20170923035337 62 304 16.0 23.0 0.00 0.06 0.06 97 1012.6
20170923034836 62 312 15.0 22.0 0.00 0.06 0.06 97 1012.7
20170923034318 62 322 15.0 25.0 0.00 0.06 0.06 97 1012.6
20170923033828 61 350 14.0 25.0 0.00 0.06 0.06 97 1012.7
20170923033337 61 294 12.0 21.0 0.00 0.06 0.06 97 1012.7
20170923032834 61 327 11.0 22.0 0.00 0.06 0.06 97 1012.7
20170923032322 61 315 14.0 23.0 0.00 0.06 0.06 97 1012.7
20170923031838 61 327 15.0 24.0 0.00 0.06 0.06 97 1012.7
20170923031329 61 341 15.0 24.0 0.00 0.06 0.06 97 1012.7
20170923030832 61 275 11.0 19.0 0.00 0.06 0.06 97 1012.8
20170923030327 61 338 12.0 21.0 0.00 0.06 0.06 97 1012.8
20170923025837 61 334 13.0 21.0 0.00 0.06 0.06 97 1012.8
20170923025327 61 355 13.0 21.0 0.00 0.06 0.06 97 1012.7
20170923024818 61 320 13.0 26.0 0.00 0.06 0.06 97 1012.7
20170923024335 61 308 13.0 26.0 0.00 0.06 0.06 97 1012.7
20170923023825 61 355 11.0 22.0 0.00 0.06 0.06 97 1012.5
20170923023322 61 340 14.0 25.0 0.00 0.06 0.06 97 1012.5
20170923022822 61 342 15.0 25.0 0.00 0.06 0.06 97 1012.8
20170923022329 61 332 12.0 20.0 0.00 0.06 0.06 97 1012.8
20170923021822 61 348 12.0 20.0 0.00 0.06 0.06 97 1012.9
20170923021337 61 336 12.0 24.0 0.00 0.06 0.06 96 1012.8
20170923020828 61 346 16.0 24.0 0.00 0.06 0.06 96 1012.7
20170923020332 60 318 14.0 21.0 0.00 0.06 0.06 96 1012.7
20170923015827 60 341 13.0 28.0 0.00 0.06 0.06 96 1012.9
20170923015328 60 319 12.0 23.0 0.00 0.06 0.06 96 1012.7
20170923014827 60 309 13.0 24.0 0.00 0.06 0.06 96 1012.7
20170923014335 60 348 15.0 24.0 0.00 0.06 0.06 97 1012.7
20170923013819 60 327 13.0 23.0 0.01 0.06 0.06 97 1012.7
20170923013338 60 355 14.0 22.0 0.01 0.06 0.06 97 1012.8
20170923012835 60 325 14.0 23.0 0.01 0.06 0.06 97 1012.8
20170923012332 60 318 14.0 23.0 0.01 0.06 0.06 97 1012.9
20170923011835 60 319 13.0 22.0 0.01 0.06 0.06 96 1012.8
20170923011323 60 340 13.0 24.0 0.01 0.06 0.06 96 1012.7
20170923010821 60 319 14.0 24.0 0.01 0.06 0.06 96 1012.7
20170923010324 60 327 14.0 25.0 0.01 0.06 0.06 96 1012.6
20170923005826 60 355 16.0 25.0 0.01 0.06 0.06 96 1012.5
20170923005322 60 339 14.0 30.0 0.01 0.06 0.06 96 1012.6
20170923004826 60 342 15.0 30.0 0.01 0.06 0.06 96 1012.5
20170923004334 60 350 14.0 25.0 0.01 0.06 0.06 96 1012.6
20170923003827 60 348 14.0 29.0 0.00 0.05 0.05 96 1012.7
20170923003335 60 331 12.0 29.0 0.00 0.05 0.05 96 1012.7
20170923002832 60 314 15.0 29.0 0.00 0.05 0.05 96 1012.6
20170923002330 60 342 15.0 27.0 0.00 0.05 0.05 96 1012.5
20170923001833 60 325 15.0 27.0 0.00 0.05 0.05 96 1012.5
20170923001330 60 346 17.0 29.0 0.00 0.05 0.05 96 1012.5
20170923000824 60 309 15.0 29.0 0.00 0.05 0.05 96 1012.6
20170923000320 60 339 17.0 27.0 0.00 0.05 0.05 96 1012.6
20170922235821 60 321 13.0 25.0 0.00 0.05 0.05 96 1012.6
20170922235318 60 286 16.0 28.0 0.00 0.05 0.05 96 1012.5
20170922234828 60 355 16.0 28.0 0.01 0.05 0.05 96 1012.5
20170922234331 60 308 17.0 27.0 0.01 0.05 0.05 96 1012.4
20170922233823 60 360 16.0 25.0 0.01 0.05 0.05 96 1012.2
20170922233319 60 317 15.0 28.0 0.01 0.05 0.05 96 1012.2
20170922232833 60 355 15.0 28.0 0.01 0.05 0.05 96 1012.2
20170922232319 60 332 14.0 26.0 0.01 0.05 0.05 96 1012.2
20170922231817 60 342 14.0 27.0 0.01 0.05 0.05 96 1012.1
20170922231335 60 330 15.0 27.0 0.01 0.05 0.05 96 1012.3
20170922230827 60 320 15.0 29.0 0.01 0.05 0.05 96 1012.1
20170922230322 60 325 15.0 29.0 0.01 0.05 0.05 96 1012.2
20170922225818 60 360 18.0 25.0 0.01 0.05 0.05 96 1012.2
20170922225335 60 340 18.0 29.0 0.01 0.05 0.05 96 1012.2
20170922224824 60 335 16.0 29.0 0.00 0.04 0.04 96 1012.2
20170922224326 60 336 17.0 28.0 0.00 0.04 0.04 96 1012.1
20170922223827 60 296 14.0 28.0 0.00 0.04 0.04 96 1012.1
20170922223334 60 317 19.0 28.0 0.00 0.04 0.04 96 1012.0
20170922222826 60 298 15.0 28.0 0.00 0.04 0.04 96 1012.2
20170922222327 60 321 17.0 28.0 0.00 0.04 0.04 96 1012.1
20170922221835 60 293 16.0 28.0 0.00 0.04 0.04 96 1012.2
20170922221333 60 5 16.0 28.0 0.00 0.04 0.04 96 1012.2
20170922220826 60 346 12.0 24.0 0.00 0.04 0.04 96 1012.3
20170922220332 60 336 15.0 27.0 0.00 0.04 0.04 96 1012.4
20170922215827 60 328 16.0 27.0 0.00 0.04 0.04 96 1012.4
20170922215334 60 350 13.0 21.0 0.00 0.04 0.04 96 1012.3
20170922214829 60 348 12.0 24.0 0.00 0.04 0.04 96 1012.3
20170922214325 60 61 15.0 25.0 0.00 0.04 0.04 96 1012.3
20170922213835 60 342 16.0 26.0 0.00 0.04 0.04 96 1012.4
20170922213333 60 313 15.0 27.0 0.00 0.04 0.04 96 1012.3
20170922212823 60 355 14.0 30.0 0.00 0.04 0.04 96 1012.3
20170922212330 60 302 17.0 30.0 0.00 0.04 0.04 96 1012.2
20170922211828 60 327 17.0 25.0 0.00 0.04 0.04 96 1012.1
20170922211326 60 313 16.0 28.0 0.00 0.04 0.04 96 1012.2
20170922210830 60 360 14.0 23.0 0.00 0.04 0.04 96 1012.3
20170922210325 60 314 14.0 23.0 0.00 0.04 0.04 96 1012.2
20170922205836 60 338 12.0 23.0 0.00 0.04 0.04 96 1012.2
20170922205326 60 326 16.0 26.0 0.00 0.04 0.04 96 1012.2
20170922204822 60 336 12.0 26.0 0.00 0.04 0.04 96 1012.2
20170922204318 60 322 14.0 29.0 0.00 0.04 0.04 95 1012.2
20170922203828 60 342 13.0 29.0 0.00 0.04 0.04 95 1012.1
20170922203323 60 321 18.0 26.0 0.00 0.04 0.04 95 1012.1
20170922202822 60 340 17.0 23.0 0.00 0.04 0.04 95 1012.3
20170922202330 60 325 12.0 23.0 0.00 0.04 0.04 95 1012.2
20170922201826 60 342 14.0 25.0 0.00 0.04 0.04 95 1012.2
20170922201323 60 323 13.0 25.0 0.00 0.04 0.04 95 1012.2
20170922200833 60 313 18.0 25.0 0.00 0.04 0.04 95 1012.0
20170922200334 60 336 12.0 25.0 0.00 0.04 0.04 95 1012.1
20170922195825 60 322 15.0 25.0 0.00 0.04 0.04 95 1012.0
20170922195321 60 323 14.0 24.0 0.00 0.04 0.04 95 1012.0
20170922194818 60 5 15.0 24.0 0.00 0.04 0.04 95 1012.1
20170922194323 60 329 14.0 27.0 0.00 0.04 0.04 95 1012.1
20170922193833 60 310 14.0 27.0 0.00 0.04 0.04 95 1012.1
20170922193328 60 342 17.0 27.0 0.00 0.04 0.04 95 1012.3
20170922192832 60 333 13.0 25.0 0.00 0.04 0.04 95 1012.2
20170922192319 60 324 13.0 24.0 0.00 0.04 0.04 95 1012.2
20170922191836 60 282 14.0 32.0 0.00 0.04 0.04 94 1012.2
20170922191319 60 335 19.0 32.0 0.00 0.04 0.04 94 1012.2
20170922190828 60 313 15.0 36.0 0.00 0.04 0.04 94 1012.1
20170922190325 60 309 21.0 36.0 0.00 0.04 0.04 94 1012.1
20170922185827 60 321 18.0 30.0 0.00 0.04 0.04 94 1012.2
20170922185335 60 325 17.0 29.0 0.00 0.04 0.04 94 1012.2
20170922184834 60 344 18.0 34.0 0.00 0.04 0.04 94 1012.2
20170922184335 60 320 20.0 34.0 0.00 0.04 0.04 94 1012.3
20170922183826 60 355 20.0 31.0 0.00 0.04 0.04 95 1012.2
20170922183323 60 340 17.0 33.0 0.00 0.04 0.04 94 1012.3
20170922182833 60 5 16.0 30.0 0.00 0.04 0.04 94 1012.3
20170922182328 60 11 18.0 32.0 0.00 0.04 0.04 94 1012.2
20170922181819 60 319 18.0 32.0 0.00 0.04 0.04 94 1012.1
20170922181328 60 360 17.0 30.0 0.00 0.04 0.04 94 1012.3
20170922180827 60 335 17.0 30.0 0.00 0.04 0.04 94 1012.2
20170922180318 60 355 18.0 33.0 0.00 0.04 0.04 94 1012.3
20170922175824 60 319 16.0 33.0 0.00 0.04 0.04 94 1012.4
20170922175319 60 323 17.0 34.0 0.00 0.04 0.04 94 1012.3
20170922174827 60 348 21.0 34.0 0.00 0.04 0.04 94 1012.5
20170922174336 60 334 19.0 30.0 0.00 0.04 0.04 94 1012.6
20170922173835 60 299 17.0 31.0 0.00 0.04 0.04 95 1012.5
20170922173336 60 318 16.0 34.0 0.00 0.04 0.04 95 1012.7
20170922172826 59 331 18.0 34.0 0.00 0.04 0.04 95 1012.7
20170922172323 59 326 14.0 31.0 0.00 0.04 0.04 95 1012.6
20170922171819 59 340 15.0 27.0 0.00 0.04 0.04 95 1012.8
20170922171321 59 296 18.0 27.0 0.00 0.04 0.04 95 1012.8
20170922170831 59 330 17.0 27.0 0.00 0.04 0.04 95 1012.9
20170922170329 59 350 15.0 32.0 0.00 0.04 0.04 95 1012.9
20170922165831 59 303 20.0 28.0 0.00 0.04 0.04 95 1012.9
20170922165327 59 331 17.0 27.0 0.00 0.04 0.04 95 1013.0
20170922164819 59 311 18.0 28.0 0.00 0.04 0.04 94 1013.0
20170922164318 59 9 18.0 28.0 0.00 0.04 0.04 94 1012.9
20170922163828 59 305 17.0 26.0 0.00 0.04 0.04 94 1013.0
20170922163325 59 279 15.0 26.0 0.00 0.04 0.04 95 1012.9
20170922162824 59 355 17.0 26.0 0.01 0.04 0.04 95 1012.9
20170922162326 59 300 14.0 31.0 0.01 0.04 0.04 95 1012.9
20170922161825 59 307 20.0 31.0 0.01 0.04 0.04 95 1013.0
20170922161321 59 314 17.0 30.0 0.01 0.04 0.04 95 1012.8
20170922160819 59 329 16.0 29.0 0.01 0.04 0.04 95 1012.9
20170922160329 59 344 14.0 27.0 0.01 0.04 0.04 95 1012.9
20170922155823 59 309 17.0 27.0 0.01 0.04 0.04 95 1012.9
20170922155329 59 285 15.0 29.0 0.01 0.04 0.04 95 1012.8
20170922154838 59 329 16.0 29.0 0.01 0.04 0.04 95 1012.9
20170922154327 59 323 17.0 31.0 0.01 0.04 0.04 95 1012.9
20170922153827 59 297 16.0 31.0 0.01 0.04 0.04 95 1012.8
20170922153334 59 286 13.0 25.0 0.01 0.04 0.04 95 1012.9
20170922152827 59 329 14.0 31.0 0.00 0.03 0.03 95 1012.9
20170922151823 59 321 17.0 28.0 0.01 0.03 0.03 95 1012.9
20170922151318 59 355 16.0 27.0 0.01 0.03 0.03 95 1012.9
20170922150829 59 355 19.0 27.0 0.01 0.03 0.03 95 1012.9
20170922150332 59 315 15.0 24.0 0.01 0.03 0.03 96 1012.9
20170922145826 59 317 16.0 28.0 0.01 0.03 0.03 95 1013.0
20170922145336 59 339 15.0 26.0 0.01 0.03 0.03 95 1012.9
20170922144825 59 355 16.0 26.0 0.01 0.03 0.03 95 1013.0
20170922144322 58 336 12.0 29.0 0.01 0.03 0.03 95 1013.1
20170922143829 58 321 17.0 29.0 0.01 0.03 0.03 95 1012.9
20170922143336 58 344 16.0 27.0 0.01 0.03 0.03 95 1013.1
20170922142834 58 301 15.0 27.0 0.01 0.03 0.03 95 1012.9
20170922142330 59 355 15.0 22.0 0.00 0.02 0.02 95 1012.9
20170922141834 59 310 14.0 28.0 0.00 0.02 0.02 95 1012.8
20170922141322 59 331 13.0 23.0 0.00 0.02 0.02 95 1012.7
20170922140828 58 343 16.0 27.0 0.00 0.02 0.02 95 1012.8
20170922140332 59 334 17.0 28.0 0.00 0.02 0.02 95 1012.7
20170922135833 59 321 16.0 29.0 0.00 0.02 0.02 95 1012.7
20170922135329 59 326 16.0 32.0 0.00 0.02 0.02 95 1012.8
20170922134833 59 331 17.0 32.0 0.00 0.02 0.02 95 1012.7
20170922134329 59 327 11.0 28.0 0.00 0.02 0.02 96 1012.9
20170922133818 58 317 16.0 28.0 0.00 0.02 0.02 95 1013.0
20170922133321 58 308 15.0 27.0 0.00 0.02 0.02 95 1013.0
20170922132832 58 329 15.0 29.0 0.00 0.02 0.02 95 1012.9
20170922132320 58 327 17.0 33.0 0.00 0.02 0.02 95 1012.8
20170922131818 58 355 20.0 33.0 0.00 0.02 0.02 95 1012.8
20170922131326 58 338 17.0 32.0 0.00 0.02 0.02 95 1012.8
20170922130826 59 343 17.0 32.0 0.00 0.02 0.02 95 1012.8
20170922130321 59 337 15.0 30.0 0.00 0.02 0.02 95 1012.7
20170922125822 59 347 18.0 28.0 0.00 0.02 0.02 95 1012.5
20170922125319 59 337 13.0 24.0 0.00 0.02 0.02 95 1012.4
20170922124836 59 336 13.0 29.0 0.00 0.02 0.02 95 1012.4
20170922124325 59 334 18.0 32.0 0.00 0.02 0.02 95 1012.3
20170922123825 59 331 18.0 32.0 0.00 0.02 0.02 94 1012.4
20170922123326 59 340 19.0 31.0 0.00 0.02 0.02 95 1012.4
20170922122835 59 323 16.0 40.0 0.00 0.02 0.02 95 1012.4
20170922122332 59 335 21.0 40.0 0.00 0.02 0.02 95 1012.3
20170922121835 59 337 17.0 35.0 0.00 0.02 0.02 95 1012.4
20170922121324 59 294 20.0 35.0 0.00 0.02 0.02 95 1012.3
20170922120826 59 346 17.0 28.0 0.00 0.02 0.02 95 1012.3
20170922120328 59 32 21.0 34.0 0.00 0.02 0.02 95 1012.2
20170922115834 59 343 17.0 34.0 0.00 0.02 0.02 95 1012.1
20170922115331 59 355 18.0 36.0 0.01 0.02 0.02 95 1012.1
20170922114834 59 320 14.0 36.0 0.01 0.02 0.02 95 1012.2
20170922114337 59 331 16.0 34.0 0.01 0.02 0.02 95 1012.3
20170922113836 59 332 17.0 34.0 0.01 0.02 0.02 95 1012.2
20170922113332 59 339 19.0 32.0 0.01 0.02 0.02 95 1012.2
20170922112823 59 300 14.0 26.0 0.01 0.02 0.02 95 1012.1
20170922112319 59 327 16.0 35.0 0.01 0.02 0.02 95 1012.1
20170922111837 59 338 18.0 35.0 0.01 0.02 0.02 95 1012.1
20170922111326 59 355 19.0 28.0 0.01 0.02 0.02 95 1012.1
20170922110826 59 355 15.0 32.0 0.01 0.02 0.02 95 1012.3
20170922110322 59 311 16.0 32.0 0.01 0.02 0.02 95 1012.2
20170922105826 59 312 17.0 31.0 0.01 0.02 0.02 95 1012.2